NOAA 19 (33591 NORAD) Tracking and Keplerian Element Data

This shows tracking and keplerian element data for the satellite.

Feedback or suggestion? Click here.




ElementValue
Catalog33591
NameNOAA 19
Epoch Orbit79035
Epoch Day160.16667454
Epoch Year2024
RAAN215.8703
Inclination99.0475
Eccentricity0.0013011
Argument of Perigee321.094
Mean Anonmoly38.9294
Mean Motion14.13021912
Decay Rate3.8E-06
L11 33591U 09005A 24160.16667454 .00000380 00000+0 22833-3 0 9998
L22 33591 99.0475 215.8703 0013011 321.0940 38.9294 14.13021912790351



Live tracking and technical data element details for NOAA 19 (NORAD 33591). NOAA 19 can be tracked NOW for your location showing map with azimuth and elevation plus other details from your city location.







IsCatalogInMostPopularTable: catalog: 33591, numindb: 2114
Update: records affected: 1



GetName: 33591 NOAA 19

Hit Count: updated at: Tue, 17 Sep 2024 13:13:07 GMT